[[{"header":{"parameterUnit":"m.s-1","parameterCategory":1,"la1":30.2991,"la2":30.254,"lo1":-89.0895,"lo2":-89.0444,"dy":0.0017,"dx":0.0017,"nx":28,"ny":28,"refTime":"2024-03-30T03:00:00:Z","depth":0,"parameterNumber":2,"parameterNumberName":"U-component_of_WINDS"},"data":[0,0,0,0,0,0,0,0,0,0,0,0,0,0,0,0,0,0,0,0,0,0,0,0,0,0,0,0,0,0,0,0,0,0,0,0,0,0,0,0,0,0,0,0,0,0,0,0,0,0,0,0,0,0,0,0,0,0,-1.3009,-1.301,0,-1.3056,-1.3057,-1.3057,-1.3069,-1.3069,-1.3069,-1.3069,-1.3118,-1.312,-1.3122,0,0,0,0,0,0,0,0,0,0,0,0,0,-1.2931,-1.2932,-1.3009,-1.301,-1.301,-1.3056,-1.3057,-1.3058,-1.3069,-1.3069,-1.3069,-1.3068,-1.3118,-1.312,-1.3122,0,0,0,0,0,0,0,0,0,0,0,0,0,-1.297,-1.2932,-1.3009,-1.3022,-1.3024,-1.3056,-1.3057,-1.3058,-1.307,-1.3069,-1.3069,-1.3068,-1.3117,-1.312,-1.3122,-1.3146,0,0,-1.3129,-1.313,0,0,0,0,0,0,0,0,-1.2968,-1.2973,-1.3019,-1.3021,-1.3023,-1.3056,-1.3047,-1.3087,-1.307,-1.3052,-1.3069,-1.3068,-1.3098,-1.3102,-1.3112,-1.3148,-1.315,-1.313,-1.3131,-1.3132,-1.3133,0,0,0,0,0,0,0,-1.2965,-1.2971,-1.3028,-1.302,-1.3022,-1.3025,-1.3031,-1.3055,-1.3077,-1.3054,-1.3055,-1.306,-1.3099,-1.311,-1.3113,-1.3151,-1.3129,-1.3132,-1.3133,-1.3134,-1.3208,-1.3208,0,0,0,0,0,0,-1.296,-1.2969,-1.3026,-1.3029,-1.2994,-1.3027,-1.3033,-1.3046,-1.3077,-1.3081,-1.306,-1.306,-1.3106,-1.3111,-1.3115,-1.3144,-1.3132,-1.3134,-1.3136,-1.3207,-1.3208,-1.3208,0,0,0,0,0,0,-1.2958,-1.2965,-1.3025,-1.2999,-1.3007,-1.3029,-1.3044,-1.3047,-1.3058,-1.3082,-1.3086,-1.3067,-1.3106,-1.3112,-1.3138,-1.3146,-1.3135,-1.3138,-1.3206,-1.3207,-1.3208,-1.3203,0,0,0,0,0,0,-1.2956,-1.2964,-1.2974,-1.2999,-1.3008,-1.3046,-1.3044,-1.3049,-1.3062,-1.3062,-1.3089,-1.3093,-1.3106,-1.3134,-1.314,-1.3149,-1.3139,-1.3206,-1.3207,-1.3208,-1.3202,-1.3203,-1.3204,0,0,0,0,0,-1.2953,-1.2971,-1.2974,-1.2981,-1.302,-1.3047,-1.3052,-1.3065,-1.3063,-1.3072,-1.3087,-1.3092,-1.3144,-1.3137,-1.3143,-1.3154,-1.3205,-1.3207,-1.3208,-1.3202,-1.3203,-1.3204,0,0,0,0,0,0,-1.2947,-1.2975,-1.2978,-1.3005,-1.3023,-1.3049,-1.3061,-1.3066,-1.3086,-1.3086,-1.3102,-1.3108,-1.3133,-1.3146,-1.3137,-1.3177,-1.3175,-1.3177,-1.3168,-1.3169,-1.317,-1.3167,-1.3141,0,0,0,0,0,-1.2948,-1.2967,-1.299,-1.3012,-1.3021,-1.3039,-1.3051,-1.306,-1.3079,-1.3087,-1.3105,-1.3124,-1.3144,-1.3158,-1.3178,-1.3204,-1.321,-1.3214,-1.3215,-1.3216,-1.3218,-1.3232,-1.3234,-1.3212,-1.3212,-1.3212,0,0,-1.2952,-1.297,-1.2981,-1.3011,-1.3026,-1.3045,-1.3046,-1.3066,-1.308,-1.3091,-1.3116,-1.3129,-1.3152,-1.3177,-1.319,-1.3189,-1.3225,-1.3217,-1.3218,-1.322,-1.3233,-1.3235,-1.3237,-1.3213,-1.3213,-1.3212,0,0,-1.2968,-1.2984,-1.3003,-1.3017,-1.304,-1.3051,-1.3056,-1.308,-1.3089,-1.3114,-1.3122,-1.3139,-1.3175,-1.319,-1.3202,-1.3223,-1.3228,-1.3229,-1.3234,-1.3247,-1.3248,-1.325,-1.3257,-1.3259,-1.3231,-1.3231,-1.3231,0,-1.2971,-1.2999,-1.3012,-1.3031,-1.3044,-1.3053,-1.3072,-1.3086,-1.3114,-1.3123,-1.3122,-1.3165,-1.3181,-1.321,-1.3214,-1.3224,-1.323,-1.3226,-1.3247,-1.3249,-1.325,-1.3257,-1.3259,-1.3231,-1.3231,-1.3231,-1.3231,0,-1.3,-1.3019,-1.3032,-1.3057,-1.3072,-1.3091,-1.3107,-1.312,-1.3126,-1.3138,-1.3163,-1.3183,-1.3206,-1.3214,-1.3221,-1.3244,-1.3242,-1.3244,-1.3241,-1.3252,-1.3258,-1.3261,-1.323,-1.323,-1.323,-1.3231,0,0,-1.3015,-1.3046,-1.305,-1.3061,-1.3086,-1.3101,-1.3121,-1.3143,-1.3153,-1.3172,-1.3188,-1.3217,-1.3218,-1.3232,-1.3241,-1.3253,-1.3266,-1.3253,-1.3253,-1.3254,-1.3291,-1.3289,-1.3292,-1.327,-1.327,-1.3271,-1.3289,0,-1.3034,-1.3068,-1.3079,-1.3108,-1.3125,-1.3133,-1.315,-1.3167,-1.3178,-1.3195,-1.3208,-1.3228,-1.3228,-1.3236,-1.3248,-1.3262,-1.3274,-1.3261,-1.3285,-1.3286,-1.3279,-1.3295,-1.3294,-1.331,-1.3291,-1.3292,-1.3292,0,-1.3061,-1.3079,-1.3108,-1.3129,-1.3137,-1.3152,-1.3172,-1.3188,-1.3207,-1.3215,-1.3229,-1.3237,-1.3257,-1.3253,-1.3281,-1.3272,-1.3282,-1.3291,-1.3292,-1.3294,-1.329,-1.3298,-1.3316,-1.3318,-1.3296,-1.3296,-1.3296,0,-1.3068,-1.3099,-1.3121,-1.313,-1.3155,-1.3165,-1.3176,-1.3195,-1.3207,-1.3225,-1.3233,-1.3253,-1.3264,-1.328,-1.3293,-1.3289,-1.3319,-1.3317,-1.3326,-1.3325,-1.3332,-1.3331,-1.3351,-1.3339,-1.3339,-1.3339,-1.3339,0,-1.3088,-1.3106,-1.3124,-1.3137,-1.3157,-1.317,-1.3189,-1.3201,-1.3216,-1.3232,-1.3241,-1.3255,-1.3272,-1.3288,-1.3298,-1.3319,-1.3325,-1.3331,-1.3333,-1.333,-1.3329,-1.3337,-1.3336,-1.334,-1.3339,-1.3339,-1.3339,0,-1.3099,-1.3112,-1.3136,-1.3157,-1.3163,-1.3176,-1.3195,-1.3208,-1.3219,-1.3238,-1.3244,-1.3261,-1.3281,-1.3295,-1.3321,-1.3328,-1.335,-1.3353,-1.3344,-1.3345,-1.3353,-1.3352,-1.3379,-1.3382,-1.3368,-1.3368,-1.3368,0,-1.3111,-1.3125,-1.3147,-1.3157,-1.3168,-1.3185,-1.3197,-1.321,-1.3222,-1.3243,-1.3254,-1.3274,-1.329,-1.3321,-1.3337,-1.3356,-1.3359,-1.3367,-1.3362,-1.3358,-1.3359,-1.3358,-1.3359,-1.3368,-1.3368,-1.3368,-1.3368,0,-1.3131,-1.3136,-1.3153,-1.3171,-1.3185,-1.32,-1.3215,-1.3224,-1.3239,-1.3252,-1.3272,-1.3285,-1.331,-1.333,-1.335,-1.3362,-1.3368,-1.3369,-1.3373,-1.3369,-1.3363,-1.3366,-1.3345,-1.3369,-1.3369,-1.3369,-1.3369,-1.3369,-1.3143,-1.3155,-1.3171,-1.3189,-1.3202,-1.3216,-1.3228,-1.324,-1.3257,-1.3278,-1.3284,-1.3304,-1.3322,-1.335,-1.3362,-1.3378,-1.3377,-1.3382,-1.3383,-1.3384,-1.3384,-1.336,-1.3381,-1.3381,-1.3381,-1.3381,-1.3381,0,-1.3162,-1.3173,-1.3189,-1.321,-1.3223,-1.3226,-1.3243,-1.3255,-1.3272,-1.3287,-1.3303,-1.3325,-1.3344,-1.336,-1.3379,-1.3389,-1.3392,-1.3393,-1.3393,-1.3395,-1.3383,-1.3378,-1.339,-1.339,-1.339,-1.339,-1.339,-1.339,-1.3174,-1.3194,-1.3201,-1.3227,-1.3238,-1.3257,-1.3266,-1.3278,-1.3291,-1.3314,-1.333,-1.3339,-1.3355,-1.3375,-1.3392,-1.3397,-1.3403,-1.3404,-1.3409,-1.3397,-1.3396,-1.3395,-1.3391,-1.3405,-1.3405,-1.342,-1.342,-1.342]},{"header":{"parameterUnit":"m.s-1","parameterCategory":1,"la1":30.2991,"la2":30.254,"lo1":-89.0895,"lo2":-89.0444,"dy":0.0017,"dx":0.0017,"nx":28,"ny":28,"refTime":"2024-03-30T03:00:00:Z","depth":0,"parameterNumber":3,"parameterNumberName":"V-component_of_WINDS"},"data":[0,0,0,0,0,0,0,0,0,0,0,0,0,0,0,0,0,0,0,0,0,0,0,0,0,0,0,0,0,0,0,0,0,0,0,0,0,0,0,0,0,0,0,0,0,0,0,0,0,0,0,0,0,0,0,0,0,0,3.8029,3.803,0,3.813,3.8131,3.8132,3.8164,3.8163,3.8163,3.8162,3.8265,3.8268,3.8271,0,0,0,0,0,0,0,0,0,0,0,0,0,3.7864,3.7867,3.8029,3.803,3.8032,3.813,3.8131,3.8132,3.8164,3.8163,3.8163,3.8162,3.8264,3.8268,3.8271,0,0,0,0,0,0,0,0,0,0,0,0,0,3.7947,3.7868,3.8029,3.8059,3.8063,3.8129,3.8131,3.8133,3.8164,3.8163,3.8162,3.8162,3.8263,3.8267,3.8272,3.8316,0,0,3.8286,3.8289,0,0,0,0,0,0,0,0,3.7942,3.7953,3.8054,3.8057,3.8062,3.8134,3.811,3.8194,3.8164,3.8126,3.8162,3.8161,3.8222,3.823,3.825,3.832,3.8325,3.8287,3.829,3.8292,3.8293,0,0,0,0,0,0,0,3.7937,3.7949,3.8069,3.8055,3.806,3.8068,3.8079,3.8126,3.8176,3.8129,3.8131,3.8143,3.8224,3.8246,3.8253,3.8326,3.8287,3.8291,3.8294,3.8296,3.8438,3.8439,0,0,0,0,0,0,3.7926,3.7944,3.8066,3.8072,3.7999,3.8071,3.8083,3.8111,3.8176,3.8185,3.8143,3.8144,3.8238,3.8247,3.8257,3.8313,3.8292,3.8296,3.8299,3.8438,3.8439,3.844,0,0,0,0,0,0,3.7922,3.7936,3.8062,3.8009,3.8025,3.8075,3.8106,3.8113,3.8135,3.8187,3.8196,3.8157,3.8238,3.825,3.8301,3.8317,3.8298,3.8303,3.8436,3.8438,3.8439,3.8426,0,0,0,0,0,0,3.7917,3.7935,3.7952,3.8009,3.8028,3.8105,3.8106,3.8116,3.8144,3.8145,3.8202,3.821,3.8238,3.8294,3.8306,3.8323,3.8306,3.8435,3.8437,3.8439,3.8425,3.8427,3.8428,0,0,0,0,0,3.7911,3.7944,3.7953,3.7967,3.8051,3.8105,3.8116,3.8148,3.8145,3.8162,3.8196,3.8209,3.8313,3.8299,3.8312,3.8332,3.8434,3.8437,3.8439,3.8424,3.8426,3.8428,0,0,0,0,0,0,3.7887,3.7952,3.7962,3.8014,3.8054,3.8111,3.8134,3.8148,3.819,3.819,3.8226,3.8239,3.8287,3.8314,3.8297,3.8378,3.8374,3.8379,3.8359,3.8361,3.8362,3.8356,3.831,0,0,0,0,0,3.7888,3.7927,3.7981,3.8022,3.8042,3.8084,3.8109,3.813,3.8173,3.8189,3.8226,3.8267,3.8309,3.8336,3.8378,3.8429,3.8442,3.8449,3.845,3.8451,3.8455,3.8485,3.849,3.8447,3.8447,3.8447,0,0,3.789,3.793,3.7953,3.8018,3.8052,3.8092,3.8098,3.814,3.817,3.8196,3.8247,3.8275,3.8323,3.8374,3.8399,3.8399,3.847,3.8454,3.8454,3.8458,3.8488,3.8492,3.8496,3.8448,3.8448,3.8448,0,0,3.7915,3.7948,3.7987,3.802,3.807,3.8099,3.8108,3.8162,3.8182,3.8234,3.8254,3.829,3.8362,3.8396,3.8422,3.8459,3.8473,3.8472,3.848,3.8509,3.8512,3.8515,3.853,3.8535,3.8476,3.8475,3.8475,0,3.7911,3.7972,3.8004,3.8046,3.8074,3.8099,3.8139,3.8169,3.823,3.825,3.8248,3.8339,3.8373,3.8433,3.8443,3.8463,3.8475,3.8466,3.8509,3.8513,3.8516,3.8531,3.8536,3.8475,3.8475,3.8475,3.8475,0,3.7966,3.8008,3.8033,3.8092,3.8123,3.8163,3.8201,3.8229,3.8247,3.8275,3.8328,3.8369,3.842,3.8436,3.8453,3.8499,3.8497,3.8502,3.8499,3.8519,3.8534,3.8539,3.8475,3.8475,3.8475,3.8475,0,0,3.7979,3.8056,3.8064,3.8092,3.8149,3.8183,3.8223,3.8274,3.8297,3.8338,3.8374,3.8434,3.8439,3.8469,3.8491,3.8516,3.8545,3.8518,3.8519,3.8522,3.8599,3.8596,3.8602,3.8553,3.8554,3.8555,3.8596,0,3.8013,3.8088,3.8118,3.8179,3.8219,3.8243,3.8279,3.8318,3.8345,3.8383,3.8413,3.8456,3.8458,3.8476,3.8502,3.8535,3.8561,3.8533,3.8588,3.859,3.8577,3.861,3.8607,3.8643,3.8601,3.8602,3.8603,0,3.8062,3.8104,3.8169,3.8222,3.824,3.8272,3.8321,3.8356,3.8401,3.8419,3.8453,3.8473,3.8517,3.851,3.8573,3.8553,3.8577,3.8597,3.8599,3.8607,3.8599,3.862,3.8655,3.8661,3.8612,3.8611,3.861,0,3.8067,3.814,3.8189,3.8211,3.8274,3.8296,3.8323,3.8367,3.8396,3.8438,3.8457,3.8503,3.8529,3.8565,3.8598,3.8589,3.8657,3.8653,3.8674,3.8674,3.8689,3.8688,3.873,3.8702,3.8701,3.8701,3.8701,0,3.8102,3.8142,3.8192,3.8222,3.8267,3.8301,3.8344,3.8373,3.8412,3.8448,3.8471,3.8505,3.8544,3.8583,3.8609,3.8657,3.8668,3.8685,3.8691,3.8684,3.8682,3.8701,3.87,3.8703,3.8703,3.8702,3.8702,0,3.8117,3.8152,3.8207,3.8262,3.8277,3.8307,3.8354,3.8385,3.8413,3.8458,3.8471,3.8515,3.8562,3.8597,3.8658,3.8675,3.8727,3.8733,3.8712,3.8716,3.8736,3.8735,3.8794,3.8804,3.8767,3.8767,3.8767,0,3.8138,3.8169,3.8227,3.8253,3.828,3.8322,3.8351,3.8385,3.8415,3.8468,3.8492,3.8541,3.8581,3.8655,3.8693,3.874,3.8748,3.8766,3.8755,3.8747,3.875,3.8749,3.8753,3.8767,3.8768,3.8768,3.8768,0,3.8172,3.8188,3.8229,3.8277,3.8311,3.835,3.839,3.841,3.8451,3.8483,3.8531,3.8563,3.8625,3.8673,3.8724,3.8752,3.8767,3.8771,3.8779,3.8772,3.876,3.8768,3.8718,3.877,3.877,3.8769,3.8769,3.8769,3.8192,3.8221,3.8267,3.8312,3.8345,3.8382,3.8413,3.8445,3.8486,3.854,3.8557,3.8607,3.8652,3.8721,3.875,3.879,3.879,3.8801,3.8804,3.8807,3.8807,3.8751,3.8799,3.8799,3.8799,3.8799,3.8799,0,3.8229,3.826,3.8301,3.8356,3.8392,3.8402,3.8446,3.8476,3.852,3.856,3.8599,3.8655,3.8702,3.8743,3.8792,3.8816,3.8825,3.8828,3.8828,3.8834,3.8803,3.8792,3.8821,3.8821,3.8821,3.8821,3.8821,3.8821,3.8253,3.8303,3.8324,3.8391,3.8421,3.8471,3.8495,3.8529,3.8561,3.8623,3.8662,3.8688,3.8729,3.8781,3.8825,3.8836,3.8853,3.8855,3.8868,3.8839,3.8836,3.8834,3.8824,3.8859,3.8859,3.8897,3.8897,3.8897]}]]